[[{"header":{"parameterUnit":"m.s-1","parameterCategory":1,"la1":30.2991,"la2":30.254,"lo1":-89.0895,"lo2":-89.0444,"dy":0.0017,"dx":0.0017,"nx":28,"ny":28,"refTime":"2023-11-16T03:00:00:Z","depth":0,"parameterNumber":2,"parameterNumberName":"U-component_of_WINDS"},"data":[0,0,0,0,0,0,0,0,0,0,0,0,0,0,0,0,0,0,0,0,0,0,0,0,0,0,0,0,0,0,0,0,0,0,0,0,0,0,0,0,0,0,0,0,0,0,0,0,0,0,0,0,0,0,0,0,0,0,0.8522,0.8522,0,0.8588,0.8589,0.859,0.8602,0.8602,0.8601,0.8601,0.8667,0.8669,0.8671,0,0,0,0,0,0,0,0,0,0,0,0,0,0.8403,0.8405,0.8522,0.8522,0.8523,0.8588,0.8589,0.859,0.8602,0.8602,0.8601,0.8601,0.8666,0.8669,0.8672,0,0,0,0,0,0,0,0,0,0,0,0,0,0.846,0.8406,0.8521,0.8537,0.8539,0.8588,0.8589,0.859,0.8603,0.8602,0.8601,0.86,0.8665,0.8669,0.8672,0.8709,0,0,0.8682,0.8684,0,0,0,0,0,0,0,0,0.8457,0.8465,0.8534,0.8536,0.8539,0.8586,0.8572,0.863,0.8603,0.8579,0.8601,0.86,0.8641,0.8646,0.866,0.8712,0.8715,0.8683,0.8685,0.8686,0.8687,0,0,0,0,0,0,0,0.8453,0.8462,0.8548,0.8535,0.8538,0.8541,0.8548,0.8583,0.8613,0.8581,0.8582,0.859,0.8642,0.8657,0.8662,0.8716,0.8683,0.8686,0.8688,0.8689,0.8802,0.8803,0,0,0,0,0,0,0.8447,0.8459,0.8546,0.855,0.8495,0.8543,0.8551,0.8572,0.8613,0.8618,0.859,0.859,0.8652,0.8658,0.8664,0.8711,0.8686,0.8689,0.8691,0.8801,0.8803,0.8804,0,0,0,0,0,0,0.8444,0.8454,0.8543,0.8505,0.8516,0.8546,0.8569,0.8574,0.8589,0.862,0.8625,0.86,0.8651,0.866,0.8698,0.8714,0.8691,0.8694,0.88,0.8802,0.8803,0.8805,0,0,0,0,0,0,0.8441,0.8453,0.8468,0.8505,0.8518,0.8576,0.857,0.8575,0.8595,0.8595,0.8631,0.8636,0.8651,0.8693,0.8702,0.8718,0.8697,0.8799,0.8801,0.8803,0.8804,0.8806,0.8809,0,0,0,0,0,0.8436,0.8465,0.8469,0.8479,0.8537,0.8577,0.8585,0.8602,0.8596,0.8611,0.8631,0.8635,0.871,0.8697,0.8707,0.8724,0.8798,0.88,0.8803,0.8803,0.8806,0.8808,0,0,0,0,0,0,0.8428,0.847,0.8475,0.8516,0.8543,0.8579,0.8599,0.8605,0.8634,0.8633,0.8652,0.866,0.8698,0.8715,0.8699,0.8763,0.8754,0.8758,0.875,0.8754,0.8756,0.8752,0.8699,0,0,0,0,0,0.8431,0.8461,0.8496,0.8529,0.8543,0.8568,0.8586,0.8598,0.8626,0.8637,0.866,0.8687,0.8717,0.8736,0.8765,0.8806,0.8814,0.8823,0.8825,0.8827,0.8831,0.8854,0.8859,0.8811,0.8811,0.8811,0,0,0.8438,0.8465,0.8482,0.8528,0.8551,0.8581,0.8578,0.8609,0.8632,0.8642,0.868,0.8698,0.8729,0.8769,0.8788,0.8785,0.8846,0.883,0.8831,0.8834,0.8857,0.8862,0.8866,0.8812,0.8812,0.8812,0,0,0.8466,0.8489,0.852,0.8542,0.8576,0.8594,0.8601,0.8636,0.8649,0.8688,0.8696,0.8723,0.8774,0.8796,0.8814,0.8851,0.8856,0.886,0.8873,0.8895,0.8899,0.8903,0.8917,0.8922,0.8863,0.8863,0.8863,0,0.847,0.8516,0.8535,0.8567,0.8587,0.8598,0.863,0.865,0.8692,0.8705,0.8701,0.8766,0.8787,0.8833,0.8842,0.8856,0.8865,0.8856,0.8897,0.8901,0.8904,0.8918,0.8923,0.8863,0.8863,0.8863,0.8863,0,0.852,0.8552,0.8572,0.8613,0.8636,0.8667,0.869,0.8711,0.872,0.8737,0.8777,0.8804,0.8839,0.885,0.8859,0.8898,0.8895,0.8893,0.8885,0.8909,0.8922,0.8928,0.8864,0.8864,0.8864,0.8863,0,0,0.8544,0.8596,0.8603,0.8623,0.8661,0.8686,0.8718,0.8753,0.8771,0.8799,0.8826,0.8869,0.8869,0.8889,0.89,0.892,0.8949,0.8917,0.8918,0.8923,0.8995,0.8996,0.9002,0.8952,0.8953,0.8954,0.8993,0,0.8578,0.8636,0.8654,0.8702,0.8732,0.8744,0.8772,0.8798,0.8815,0.8843,0.8861,0.8892,0.8888,0.8901,0.8921,0.8941,0.8964,0.8939,0.8978,0.898,0.8971,0.9009,0.901,0.9045,0.8998,0.8999,0.8999,0,0.8624,0.8655,0.8707,0.8742,0.8756,0.878,0.8815,0.8841,0.8871,0.8882,0.8905,0.8915,0.8949,0.8938,0.8985,0.8967,0.8984,0.8997,0.8999,0.9004,0.8991,0.9016,0.9056,0.9062,0.9007,0.9007,0.9006,0,0.8638,0.8692,0.873,0.8746,0.8789,0.8806,0.8824,0.8854,0.8874,0.8904,0.8918,0.895,0.8968,0.8993,0.9012,0.9002,0.9057,0.9048,0.9067,0.9067,0.9079,0.9078,0.9124,0.9088,0.9088,0.9088,0.9088,0,0.8674,0.8706,0.8738,0.8761,0.8797,0.8817,0.8852,0.887,0.8897,0.8924,0.8935,0.896,0.8983,0.9011,0.9025,0.9063,0.907,0.908,0.9084,0.908,0.9079,0.9092,0.909,0.909,0.9089,0.9089,0.9089,0,0.8696,0.8719,0.8762,0.8799,0.8809,0.8833,0.8865,0.8888,0.8906,0.894,0.895,0.8977,0.9011,0.9032,0.9074,0.9084,0.9125,0.9127,0.9116,0.9117,0.9137,0.9135,0.9193,0.9202,0.9159,0.916,0.916,0,0.8718,0.8743,0.8783,0.8803,0.8822,0.8853,0.8874,0.8894,0.8916,0.8953,0.8972,0.9007,0.9036,0.9089,0.9113,0.9146,0.9149,0.9168,0.9154,0.915,0.9151,0.915,0.9153,0.917,0.917,0.9171,0.9171,0,0.8755,0.8765,0.8796,0.8831,0.8856,0.8884,0.8912,0.8927,0.8952,0.8976,0.9012,0.9034,0.9078,0.9113,0.9148,0.9167,0.9173,0.9175,0.9181,0.9178,0.9171,0.9176,0.9123,0.9174,0.9173,0.9173,0.9173,0.9173,0.8778,0.8801,0.8833,0.8867,0.8891,0.8917,0.8941,0.8962,0.8993,0.9031,0.9041,0.9078,0.9108,0.9156,0.9176,0.9205,0.9202,0.9211,0.9214,0.9216,0.9217,0.9165,0.9211,0.9211,0.9211,0.9211,0.9211,0,0.8816,0.8838,0.8869,0.8909,0.8935,0.894,0.8971,0.8993,0.9026,0.9054,0.9083,0.9124,0.9158,0.9185,0.9219,0.9238,0.9242,0.9246,0.9246,0.925,0.9217,0.9208,0.9243,0.9243,0.9243,0.9243,0.9243,0.9243,0.884,0.8879,0.8893,0.8945,0.8966,0.9003,0.9021,0.9045,0.9068,0.9113,0.9142,0.9159,0.9187,0.9224,0.9255,0.9262,0.9275,0.9279,0.9287,0.9255,0.9252,0.9249,0.9241,0.9281,0.9281,0.9317,0.9318,0.9318]},{"header":{"parameterUnit":"m.s-1","parameterCategory":1,"la1":30.2991,"la2":30.254,"lo1":-89.0895,"lo2":-89.0444,"dy":0.0017,"dx":0.0017,"nx":28,"ny":28,"refTime":"2023-11-16T03:00:00:Z","depth":0,"parameterNumber":3,"parameterNumberName":"V-component_of_WINDS"},"data":[0,0,0,0,0,0,0,0,0,0,0,0,0,0,0,0,0,0,0,0,0,0,0,0,0,0,0,0,0,0,0,0,0,0,0,0,0,0,0,0,0,0,0,0,0,0,0,0,0,0,0,0,0,0,0,0,0,0,-2.5637,-2.5638,0,-2.5782,-2.5783,-2.5785,-2.5816,-2.5815,-2.5814,-2.5813,-2.5956,-2.5961,-2.5965,0,0,0,0,0,0,0,0,0,0,0,0,0,-2.5383,-2.5388,-2.5636,-2.5638,-2.564,-2.5781,-2.5783,-2.5785,-2.5816,-2.5815,-2.5814,-2.5812,-2.5954,-2.596,-2.5966,0,0,0,0,0,0,0,0,0,0,0,0,0,-2.5507,-2.5389,-2.5636,-2.5673,-2.5677,-2.5781,-2.5783,-2.5786,-2.5816,-2.5815,-2.5813,-2.5812,-2.5953,-2.5959,-2.5967,-2.6042,0,0,-2.5988,-2.5992,0,0,0,0,0,0,0,0,-2.55,-2.5516,-2.5666,-2.567,-2.5676,-2.5779,-2.5747,-2.5872,-2.5817,-2.5764,-2.5813,-2.5811,-2.5898,-2.591,-2.594,-2.6049,-2.6055,-2.5989,-2.5993,-2.5997,-2.5999,0,0,0,0,0,0,0,-2.5491,-2.551,-2.5694,-2.5668,-2.5674,-2.5681,-2.5697,-2.577,-2.5838,-2.5768,-2.5771,-2.5788,-2.5901,-2.5933,-2.5944,-2.6057,-2.5989,-2.5995,-2.6,-2.6003,-2.6238,-2.624,0,0,0,0,0,0,-2.5477,-2.5503,-2.5689,-2.5698,-2.5582,-2.5687,-2.5704,-2.5748,-2.5837,-2.5849,-2.5789,-2.5789,-2.5922,-2.5935,-2.5949,-2.6045,-2.5997,-2.6003,-2.6007,-2.6236,-2.6238,-2.624,0,0,0,0,0,0,-2.5471,-2.5493,-2.5683,-2.5601,-2.5626,-2.5693,-2.5741,-2.5751,-2.5784,-2.5853,-2.5865,-2.581,-2.5921,-2.5939,-2.602,-2.605,-2.6006,-2.6013,-2.6234,-2.6237,-2.6239,-2.6237,0,0,0,0,0,0,-2.5464,-2.5491,-2.5521,-2.5602,-2.563,-2.5753,-2.5743,-2.5755,-2.5797,-2.5798,-2.5876,-2.5887,-2.5921,-2.6009,-2.6027,-2.6059,-2.6019,-2.6231,-2.6235,-2.6238,-2.6234,-2.6239,-2.6243,0,0,0,0,0,-2.5455,-2.5513,-2.5522,-2.5545,-2.567,-2.5754,-2.5771,-2.581,-2.5799,-2.583,-2.5874,-2.5885,-2.6044,-2.6017,-2.6037,-2.6073,-2.6229,-2.6234,-2.6238,-2.6232,-2.6238,-2.6243,0,0,0,0,0,0,-2.5431,-2.5524,-2.5536,-2.5622,-2.568,-2.576,-2.5799,-2.5815,-2.5876,-2.5874,-2.5919,-2.5936,-2.6015,-2.6052,-2.602,-2.6152,-2.6136,-2.6145,-2.6125,-2.6131,-2.6135,-2.6125,-2.6025,0,0,0,0,0,-2.5436,-2.5499,-2.5576,-2.5645,-2.5674,-2.5731,-2.577,-2.5796,-2.5857,-2.5882,-2.5932,-2.599,-2.6054,-2.6094,-2.6156,-2.624,-2.6258,-2.6275,-2.6279,-2.6282,-2.6289,-2.6338,-2.6347,-2.6255,-2.6255,-2.6255,0,0,-2.5447,-2.5505,-2.5542,-2.5641,-2.569,-2.5753,-2.5752,-2.5818,-2.5865,-2.5891,-2.5972,-2.6011,-2.6079,-2.6162,-2.6201,-2.6195,-2.6319,-2.6288,-2.629,-2.6295,-2.6343,-2.6352,-2.636,-2.6258,-2.6257,-2.6257,0,0,-2.5499,-2.5549,-2.5613,-2.5662,-2.5737,-2.5775,-2.5791,-2.5869,-2.5897,-2.5979,-2.6,-2.6056,-2.6164,-2.6212,-2.6251,-2.6324,-2.6336,-2.6343,-2.6366,-2.6413,-2.6421,-2.6427,-2.6454,-2.6464,-2.635,-2.635,-2.635,0,-2.5502,-2.5599,-2.5643,-2.571,-2.5753,-2.5783,-2.5847,-2.5893,-2.5982,-2.6011,-2.6004,-2.6142,-2.619,-2.6286,-2.6304,-2.6334,-2.6353,-2.6334,-2.6416,-2.6423,-2.643,-2.6457,-2.6467,-2.635,-2.635,-2.635,-2.635,0,-2.56,-2.5668,-2.571,-2.5799,-2.5848,-2.5913,-2.5966,-2.6009,-2.6032,-2.6071,-2.6155,-2.6213,-2.6289,-2.6314,-2.6334,-2.6413,-2.6408,-2.6408,-2.6393,-2.6439,-2.6464,-2.6475,-2.6351,-2.6351,-2.6351,-2.635,0,0,-2.5639,-2.5754,-2.5769,-2.5811,-2.5897,-2.5949,-2.6016,-2.6093,-2.6129,-2.6191,-2.6248,-2.6341,-2.6342,-2.6386,-2.6413,-2.6454,-2.6511,-2.645,-2.6452,-2.646,-2.6602,-2.6602,-2.6613,-2.652,-2.6522,-2.6523,-2.6597,0,-2.5702,-2.5824,-2.5867,-2.5967,-2.6031,-2.6061,-2.6119,-2.6178,-2.6217,-2.6275,-2.6318,-2.6383,-2.638,-2.6407,-2.6449,-2.6495,-2.654,-2.649,-2.6573,-2.6575,-2.6555,-2.6626,-2.6626,-2.6692,-2.6607,-2.6609,-2.661,0,-2.579,-2.5857,-2.5965,-2.6045,-2.6073,-2.6125,-2.62,-2.6256,-2.6323,-2.6349,-2.6399,-2.6424,-2.6495,-2.6477,-2.6575,-2.654,-2.6577,-2.6604,-2.6608,-2.6617,-2.6595,-2.6638,-2.6714,-2.6724,-2.6626,-2.6625,-2.6624,0,-2.5809,-2.5925,-2.6005,-2.604,-2.6136,-2.6172,-2.6213,-2.6279,-2.6323,-2.6388,-2.6417,-2.6488,-2.6527,-2.6581,-2.6625,-2.6607,-2.6719,-2.6704,-2.6742,-2.6741,-2.6764,-2.6762,-2.6848,-2.6787,-2.6787,-2.6787,-2.6786,0,-2.5875,-2.594,-2.6016,-2.6065,-2.6139,-2.6187,-2.6259,-2.6301,-2.6361,-2.6418,-2.6448,-2.6501,-2.6555,-2.6615,-2.6649,-2.6726,-2.6743,-2.6765,-2.6774,-2.6763,-2.676,-2.6787,-2.6784,-2.6789,-2.6789,-2.6788,-2.6788,0,-2.5907,-2.5961,-2.6051,-2.6135,-2.6158,-2.6209,-2.6281,-2.6329,-2.6371,-2.6444,-2.6463,-2.6528,-2.6601,-2.665,-2.6741,-2.6765,-2.6849,-2.6856,-2.6827,-2.6831,-2.6866,-2.6863,-2.6973,-2.699,-2.6917,-2.6917,-2.6918,0,-2.5946,-2.5997,-2.6088,-2.613,-2.6173,-2.6239,-2.6286,-2.6336,-2.6382,-2.6465,-2.6504,-2.6579,-2.6642,-2.6757,-2.6811,-2.6882,-2.6891,-2.6925,-2.6902,-2.689,-2.6893,-2.6889,-2.6895,-2.6928,-2.6929,-2.6929,-2.693,0,-2.6008,-2.6033,-2.61,-2.6176,-2.6232,-2.6293,-2.6355,-2.6388,-2.6449,-2.65,-2.6576,-2.6625,-2.6722,-2.6796,-2.6873,-2.6914,-2.6932,-2.6937,-2.695,-2.6939,-2.6921,-2.6933,-2.6837,-2.6934,-2.6934,-2.6933,-2.6933,-2.6933,-2.6046,-2.6094,-2.6166,-2.624,-2.6293,-2.6351,-2.6402,-2.6451,-2.6517,-2.6601,-2.6626,-2.6706,-2.6773,-2.6879,-2.6922,-2.6984,-2.6981,-2.6999,-2.7004,-2.7008,-2.7008,-2.6911,-2.6998,-2.6998,-2.6998,-2.6998,-2.6998,0,-2.611,-2.616,-2.6227,-2.6315,-2.6373,-2.6388,-2.6459,-2.6506,-2.6577,-2.6639,-2.6702,-2.6791,-2.6864,-2.6925,-2.7001,-2.7039,-2.7049,-2.7057,-2.7055,-2.7064,-2.7006,-2.6988,-2.7048,-2.7048,-2.7048,-2.7048,-2.7048,-2.7048,-2.6151,-2.6234,-2.6268,-2.6377,-2.6426,-2.6506,-2.6545,-2.6599,-2.665,-2.6749,-2.6811,-2.6851,-2.6914,-2.6995,-2.7063,-2.7079,-2.7105,-2.7111,-2.7129,-2.7074,-2.7068,-2.7063,-2.7046,-2.7117,-2.7117,-2.7182,-2.7183,-2.7183]}]]